Location: Chavannes
(46.5288°N, 6.5921°E)
Time: 15:36:42
(UTC+00:00)

Daily predictions for brighter satellites

Satellite Brightness Start Highest point End
(mag) Time Altitude Azimuth Time Altitude Azimuth Time Altitude Azimuth
Meteor 1-27 Rocket 4.0 19:41:25 10° S 19:47:00 53° E 19:52:43 10° NNE
Cosmos 1633 Rocket 3.4 19:46:56 10° NNW 19:51:18 68° W 19:55:36 10° S
Cosmos 2219 3.4 19:46:44 10° NNW 19:52:23 78° WSW 19:57:59 10° SSE
SJ 16-02 2.5 19:50:19 10° SSE 19:53:46 23° E 19:57:14 10° NE
H-2A R/B 4.2 19:50:09 10° SSW 19:54:08 34° W 19:58:01 10° NNW
Cosmos 1315 Rocket 3.8 19:50:34 10° NNW 19:54:30 48° W 19:58:22 10° S
Cosmos 1340 2.9 19:51:03 10° S 19:54:37 46° E 19:58:14 10° NNE
USA 186 4.3 19:57:22 10° WSW 19:58:19 12° W 19:59:14 10° WNW
Cosmos 2082 3.8 19:53:34 10° NNW 19:59:12 66° ENE 20:04:47 10° SE
OBJECT-B 3.9 19:59:39 10° WSW 20:00:16 10° W 20:00:54 10° WNW
Meteor 1-11 Rocket 3.9 19:54:22 10° NNW 20:00:24 88° W 20:06:20 10° S
Cosmos 482 Debris 4.4 19:58:41 10° NW 20:01:11 46° NNE 20:04:53 10° E
Cosmos 2263 Rocket 3.0 19:57:00 10° NNW 20:02:13 38° NE 20:07:22 10° ESE
Cosmos 1470 Rocket 3.6 19:58:20 10° N 20:02:42 87° W 20:07:00 10° S
Cosmos 1743 2.6 20:02:08 10° N 20:05:55 72° E 20:09:41 10° SSE
Ariane Rocket 3.0 20:01:00 10° SSE 20:06:03 75° ENE 20:11:09 10° N
BREEZE-M DEB (TANK) 2.6 20:08:18 10° W 20:11:12 52° NNW 20:13:19 10° ENE
SPOT 5 4.0 20:06:32 10° SE 20:11:16 35° ENE 20:15:52 10° N
IRAS Rocket 4.3 20:06:29 10° NNE 20:12:09 75° ESE 20:17:46 10° SSW
Terra 3.3 20:09:12 10° ESE 20:12:58 24° ENE 20:16:45 10° N
Resurs 01 Rocket 1.9 20:10:26 10° S 20:14:48 70° WSW 20:19:13 10° NNW
Aureole 1 Rocket 2.2 20:13:25 10° SSW 20:16:37 81° WNW 20:19:37 10° NNE
Cosmos 1515 Rocket 3.6 20:12:59 10° S 20:17:21 86° W 20:21:48 10° N
Cosmos 2227 Rocket 3.2 20:14:55 10° NW 20:20:15 43° WSW 20:25:33 10° S
Cosmos 921 Rocket 3.1 20:17:03 10° NNW 20:21:34 77° ENE 20:25:38 13° SSE
SWAS 4.5 20:23:27 10° NNW 20:27:47 89° ENE 20:31:20 15° SSE
Cosmos 1980 Rocket 2.1 20:23:49 10° SSW 20:29:25 74° ESE 20:35:05 10° NNE
CARTOSAT-1 3.5 20:26:14 12° SSE 20:30:14 81° ENE 20:34:35 10° N
Cosmos 1869 Rocket 3.8 20:26:36 10° N 20:31:02 55° ENE 20:34:33 15° SSE
Cosmos 2228 Rocket 3.5 20:29:01 12° SSE 20:33:03 45° E 20:37:24 10° NNE
Cosmos 1464 Rocket 4.1 20:27:56 10° S 20:34:08 81° W 20:40:19 10° N
Cosmos 1378 4.0 20:34:31 18° SE 20:36:39 32° E 20:39:56 10° NNE
Cosmos 2344 3.5 20:30:07 10° SSW 20:37:38 83° SE 20:45:21 10° NE
Cosmos 2322 Rocket 3.7 20:36:17 15° SE 20:38:21 18° E 20:41:57 10° ENE
Cosmos 1777 Rocket 4.2 20:33:43 10° S 20:38:43 50° ESE 20:43:47 10° NNE
ISS -3.5 20:35:34 10° WNW 20:38:56 67° NNE 20:41:27 16° ESE
Cosmos 2369 3.8 20:33:28 10° SSW 20:39:07 83° WNW 20:44:49 10° NNE
Spot 2 Rocket 3.6 20:35:42 15° SSE 20:39:45 61° ENE 20:44:44 10° N
Cosmos 1354 Rocket 4.0 20:34:39 10° SSW 20:39:55 81° ESE 20:45:15 10° NNE
SPOT 3 Rocket 3.6 20:36:10 12° SSE 20:40:55 86° WSW 20:46:07 10° NNW
Cosmos 773 Rocket 4.0 20:36:00 10° NNW 20:41:16 83° ENE 20:45:19 17° SSE
Cosmos 1844 Rocket 4.5 20:37:17 10° N 20:41:25 21° NE 20:45:33 10° E
Cosmos 1536 4.1 20:37:41 10° NNW 20:41:26 38° W 20:45:10 10° SSW
ATLAS 2AS CENTAUR R/B 3.0 20:34:37 10° SSW 20:42:19 66° ESE 20:49:49 10° NE
Okean 1 3.2 20:40:21 10° S 20:44:20 83° E 20:48:23 10° N
Meteor 2-4 Rocket 4.2 20:40:22 15° SSE 20:44:51 42° E 20:50:08 10° NNE
H-2A R/B 4.2 20:42:35 10° N 20:46:03 27° WNW 20:49:29 10° WSW
Meteor 1-19 Rocket 4.1 20:41:01 10° S 20:46:26 79° E 20:51:52 10° NNE
NOSS 3-4 (A) 4.5 20:41:45 10° WSW 20:47:17 47° NW 20:53:22 10° NNE
NOSS 3-4 (C) 4.5 20:41:46 10° WSW 20:47:20 48° NW 20:53:26 10° NNE
Cosmos 1092 Rocket 4.1 20:41:13 10° N 20:47:22 63° ENE 20:52:05 17° SSE
Nadezhda 4 Rocket 4.1 20:41:56 10° N 20:48:11 78° W 20:54:08 11° S
RESURS DK-1 2.3 20:44:11 10° SSW 20:48:16 65° ESE 20:52:22 10° NNE
Cosmos 1697 Rocket 3.9 20:43:03 10° SW 20:48:27 45° NW 20:53:54 10° NNE
SL-4 R/B 3.7 20:45:55 10° W 20:49:39 25° SW 20:52:09 15° S
Meteor 2-14 Rocket 4.5 20:45:03 10° N 20:51:09 85° W 20:56:34 14° S
Cosmos 1634 Rocket 4.2 20:49:58 16° SSE 20:54:52 52° E 21:00:50 10° NNE
ARIANE 5 R/B 3.2 20:53:39 21° SE 20:56:19 45° ENE 21:00:38 10° N
Cosmos 1707 Rocket 4.0 20:54:13 21° SSE 20:56:46 43° E 21:00:57 10° NNE
ATLAS CENTAUR R/B 4.0 20:53:25 10° NNW 20:56:49 18° NNE 21:00:09 10° ENE
Cosmos 44 Rocket 3.3 20:53:48 10° NNW 20:58:31 69° NE 21:01:28 22° SE
Cosmos 2227 4.3 20:58:26 10° NNW 21:04:13 72° ENE 21:07:59 22° SE
Cosmos 158 Rocket 4.0 21:00:57 10° NNW 21:06:07 81° ENE 21:09:24 23° SSE
ATLAS 3B R/B 3.2 21:00:19 10° NW 21:07:37 64° NE 21:13:24 18° SE
NOSS 2-1 (E) 3.3 21:08:11 34° SE 21:08:33 35° ESE 21:11:31 10° NE
Cosmos 1975 2.8 21:07:20 10° N 21:11:27 83° E 21:13:33 27° SSE
USA 81 4.1 21:09:01 22° SSE 21:12:25 62° E 21:17:38 10° NNE
Cosmos 2026 Rocket 4.0 21:06:27 10° N 21:12:39 83° E 21:17:00 21° SSE
ERS-1 Rocket 3.0 21:12:32 21° S 21:15:55 77° WSW 21:20:58 10° NNW
CZ-4B R/B 4.5 21:15:14 10° NW 21:16:36 12° WNW 21:17:57 10° W
SL-16 R/B 2.4 21:13:28 19° S 21:17:14 49° ESE 21:22:41 10° NE
Meteor 1-4 Rocket 3.7 21:15:41 10° NNE 21:18:43 28° ENE 21:19:36 24° E
CZ-4C R/B 4.4 21:13:14 10° NNW 21:18:59 29° NNE 21:25:39 10° E
Cosmos 1538 Rocket 4.0 21:16:13 10° NNW 21:21:30 78° ENE 21:24:18 28° SSE
Helios 1A Rocket 3.8 21:19:01 18° SSW 21:21:38 41° W 21:25:26 10° NNW
GENESIS II 4.0 21:20:46 17° SSW 21:23:35 68° ESE 21:27:30 10° NE
CZ-2C R/B 3.8 21:19:13 10° NNE 21:24:00 83° WNW 21:27:47 16° SSW
Cosmos 1733 Rocket 3.1 21:21:16 10° N 21:25:44 71° E 21:27:44 32° SSE
Meteor 2-8 Rocket 4.4 21:25:01 19° S 21:29:35 84° E 21:35:42 10° N
OE (NEXTSAT) 4.0 21:27:29 10° W 21:30:47 82° S 21:32:08 33° E
EP 1 4.5 21:29:19 24° SSW 21:31:09 77° SE 21:33:58 10° NE
Geosat 4.2 21:28:35 26° SE 21:31:18 61° ENE 21:36:16 10° NNW
SJ 16-02 2.8 21:28:02 10° SW 21:32:06 37° WNW 21:36:12 10° N
SAR-Lupe-4 3.7 21:29:03 10° NNE 21:32:35 54° E 21:33:21 43° SSE
Iridium 45 4.5 21:33:06 36° S 21:34:24 80° W 21:37:54 10° N
Cosmos 1356 4.1 21:35:11 34° E 21:35:11 34° E 21:38:11 10° NNE
Cosmos 2292 Rocket 4.0 21:34:32 10° NNW 21:37:16 33° W 21:38:15 25° SW
Cosmos 2278 4.4 21:32:21 10° SW 21:37:54 56° WNW 21:43:30 10° NNE
Cosmos 1862 Rocket 3.5 21:37:31 33° S 21:39:30 76° E 21:43:59 10° NNE
Cosmos 923 Rocket 4.5 21:34:22 10° NNW 21:39:35 52° ENE 21:42:10 28° SE
Cosmos 2360 Rocket 2.8 21:40:43 30° SE 21:42:22 36° ESE 21:47:30 10° NE
BREEZE M DEB (TANK) 4.5 21:38:22 10° WNW 21:43:12 57° SSW 21:55:47 19° SE
Cosmos 1726 3.5 21:41:28 10° NNE 21:44:32 24° ENE 21:45:09 23° E
Meteor 2-15 4.4 21:41:00 20° SSW 21:45:22 82° W 21:51:29 10° N
Cosmos 2263 Rocket 3.1 21:41:01 10° NW 21:46:07 38° WSW 21:49:11 21° SSW
Meteor 1-13 Rocket 4.4 21:44:29 32° SSE 21:46:50 52° E 21:52:12 10° NNE
Cosmos 2266 Rocket 4.4 21:42:22 10° N 21:48:26 49° ENE 21:51:20 29° SE
NOSS 2-1 (C) 3.0 21:46:44 19° SW 21:48:54 67° NW 21:52:08 10° NE
SPOT 5 4.2 21:45:43 17° SSW 21:49:16 36° W 21:54:00 10° NNW
Terra 2.6 21:47:57 24° SSW 21:50:27 45° W 21:55:03 10° NNW
Cosmos 1441 Rocket 3.0 21:51:04 51° S 21:51:56 82° E 21:55:40 10° NNE
Cosmos 1346 Rocket 3.5 21:50:23 23° SW 21:52:39 51° WNW 21:56:35 10° N
SAR-Lupe-1 4.2 21:50:02 10° N 21:53:37 72° WNW 21:54:47 40° SSW
Cosmos 2279 Rocket 4.0 21:53:29 25° S 21:57:22 85° W 22:03:38 10° N
NOSS 2-1 (D) 3.5 21:56:58 16° WSW 21:59:23 51° NW 22:02:34 10° NNE
Cosmos 990 Rocket 3.9 21:57:54 32° S 22:00:19 74° ESE 22:05:34 10° NNE
USA 215 3.6 21:54:38 10° ENE 22:00:49 43° SE 22:03:42 28° S
Cosmos 1680 Rocket 3.8 21:56:01 10° NNW 22:01:17 59° ENE 22:03:26 34° SE
MINOTAUR IV R/B 4.5 22:00:16 38° SSW 22:01:58 80° ESE 22:06:29 10° NNE
Iridium 2 3.8 21:59:48 10° N 22:03:32 64° W 22:04:23 47° SSW
Meteor 1-12 Rocket 4.3 22:00:28 10° N 22:06:25 72° ENE 22:08:53 36° SSE
Cosmos 1066 Rocket 4.2 22:05:06 31° S 22:08:01 89° ESE 22:13:43 10° NNE
ADEOS Rocket 4.3 22:05:31 17° ESE 22:08:44 28° ENE 22:13:45 10° N
Spot 4 4.4 22:07:13 34° ESE 22:08:52 48° ENE 22:13:28 10° N
Cosmos 1818 3.9 22:04:05 10° NNW 22:09:31 60° NE 22:12:08 30° ESE
Iridium 4 Rocket 3.5 22:07:49 10° N 22:12:22 59° E 22:13:44 42° SE
Cosmos 1898 Rocket 3.5 22:11:50 40° S 22:13:40 65° ESE 22:18:57 10° NNE
ISS -1.8 22:12:43 10° W 22:14:21 20° WSW 22:14:21 20° WSW
Okean 1-7 3.0 22:17:25 53° SSE 22:18:19 71° E 22:22:41 10° NNE
Iridium 51 3.9 22:21:01 73° SW 22:21:14 78° W 22:24:47 10° N
Cosmos 2322 Rocket 2.3 22:18:02 22° SW 22:21:43 75° WNW 22:27:21 10° NNE
Okean 3 3.4 22:25:02 57° SE 22:25:35 64° E 22:29:48 10° NNE
Cosmos 1844 Rocket 2.6 22:20:24 10° NNW 22:26:01 82° WSW 22:27:57 43° SSE
Cosmos 2333 Rocket 2.6 22:25:18 39° SE 22:26:34 46° ESE 22:31:57 10° NE
Cosmos 1805 3.9 22:24:04 10° NNW 22:27:48 45° W 22:28:28 40° SW
Cosmos 1461 4.3 22:28:11 10° NNW 22:31:57 32° NE 22:33:54 22° E
H-2A R/B 3.7 22:28:11 10° NNE 22:32:10 48° E 22:32:20 47° ESE
BREEZE-M DEB (TANK) 3.2 22:29:47 10° W 22:31:52 36° SW 22:31:52 36° SW
ATLAS 2AS CENTAUR R/B 4.2 22:26:29 10° WSW 22:33:45 41° NW 22:40:46 10° NNE
Meteor 1-23 Rocket 4.2 22:34:01 41° S 22:36:09 78° E 22:41:59 10° NNE
ATLAS CENTAUR R/B 1.8 22:31:35 10° NW 22:36:28 72° NE 22:37:50 46° ESE
USA 267 3.7 22:30:16 10° ESE 22:36:40 60° NNE 22:43:06 10° NW
Cosmos 1733 4.4 22:37:30 10° NNW 22:40:52 30° W 22:41:23 29° WSW
Cosmos 1766 3.4 22:39:08 10° NNW 22:43:01 59° W 22:43:23 56° WSW
Cosmos 2219 Rocket 2.4 22:44:47 43° SE 22:45:54 49° ESE 22:51:17 10° NE
Cosmos 1703 Rocket 3.9 22:48:16 44° SW 22:49:23 59° WNW 22:53:47 10° N
Cosmos 1844 3.8 22:43:58 10° NNW 22:49:44 65° WSW 22:51:27 44° S
Cosmos 372 Rocket 3.9 22:51:17 52° S 22:52:29 73° ESE 22:57:38 10° NNE
ATLAS 3B R/B 3.7 22:51:29 10° NW 22:58:04 36° WSW 23:00:39 29° SSW
Cosmos 1707 3.0 23:00:36 54° E 23:00:36 54° E 23:04:19 10° NNE
SL-16 R/B 3.8 22:56:33 10° WSW 23:01:33 31° NW 23:06:36 10° NNE
Cosmos 1655 Rocket 4.5 22:55:42 10° NNW 23:01:42 51° W 23:04:10 33° SW
NOSS 3-1 (A) 4.4 22:54:41 10° NW 23:01:58 64° NE 23:08:57 17° SE
Cosmos 1782 Rocket 3.8 23:00:00 10° NNW 23:04:15 55° W 23:04:50 51° SW
Okean 2 4.0 23:06:39 42° E 23:06:43 42° E 23:10:36 10° NNE
ERS-2 2.1 23:03:26 10° NNE 23:06:52 79° NE 23:06:52 79° NE
CZ-4C R/B 3.1 23:01:27 10° NW 23:08:37 76° NE 23:14:17 23° SE
NOSS 3-1 (C) 4.0 23:01:52 10° NW 23:09:21 84° SW 23:14:03 31° SSE
USA 290 4.0 23:10:46 25° ENE 23:10:46 25° ENE 23:12:34 10° NE
Cosmos 1238 Rocket 3.9 23:09:49 10° NNE 23:11:57 26° ENE 23:11:57 26° ENE
Gblst 52 Del rocket 4.4 23:08:24 10° WSW 23:14:49 75° NNW 23:20:32 10° ENE
Cosmos 2237 Rocket 3.6 23:14:56 23° ESE 23:15:48 23° ESE 23:20:11 10° NE
KORONAS-FOTON 4.2 23:16:49 50° E 23:16:49 50° E 23:20:20 10° NNE
Cosmos 1470 2.9 23:15:15 10° NNW 23:19:01 57° W 23:19:01 57° W
COSMOS 2428 2.7 23:17:53 48° SSE 23:19:16 64° ESE 23:24:54 10° NNE
Cosmos 1726 3.8 23:16:28 10° NW 23:19:27 23° W 23:19:27 23° W
Cosmos 1300 Rocket 3.5 23:16:05 10° NNW 23:20:25 70° W 23:20:51 64° SW
ALOS 2 2.9 23:22:00 50° WSW 23:22:26 53° W 23:26:45 10° NNW
PSLV R/B 4.1 23:19:00 10° NNE 23:23:16 47° E 23:23:40 45° ESE
Cosmos 2151 Rocket 3.8 23:18:55 10° N 23:23:16 57° ENE 23:23:57 51° ESE
USA 305 4.4 23:26:44 24° E 23:26:44 24° E 23:28:54 10° ENE
Cosmos 1937 Rocket 4.3 23:22:46 27° WSW 23:25:16 45° WNW 23:30:21 10° NNE
Cosmos 2360 Rocket 3.3 23:22:25 17° WSW 23:26:18 40° NW 23:31:38 10° NNE
Cosmos 1242 Rocket 2.6 23:22:45 10° N 23:26:07 73° NNE 23:26:07 73° NNE
Okean 2 Rocket 3.1 23:22:51 10° N 23:27:23 73° E 23:28:05 60° SE
Cosmos 405 Rocket 3.7 23:28:20 35° E 23:28:20 35° E 23:31:36 10° NNE
In-Cosmos 22 4.1 23:29:31 50° S 23:31:04 87° E 23:36:35 10° NNE
Cosmos 1437 Rocket 3.7 23:29:43 10° N 23:33:13 36° ENE 23:33:33 35° E
Nimbus 7 Rocket 4.4 23:28:33 10° NNE 23:34:26 68° ESE 23:36:12 45° S
Cosmos 1908 3.3 23:31:00 10° N 23:34:46 63° E 23:34:47 63° E
Cosmos 1867 3.5 23:33:44 50° SSW 23:35:11 80° SE 23:40:42 10° NE
Meteor 1-21 4.3 23:34:35 45° SSW 23:36:27 81° W 23:42:19 10° N
Cosmos 1626 2.2 23:37:36 68° ENE 23:37:36 68° ENE 23:41:01 10° NNE
SL-08 R/B 4.4 23:32:52 10° N 23:39:11 90° E 23:41:27 43° S
USA 215 3.5 23:37:33 10° NE 23:44:04 70° NNW 23:50:35 10° WSW
Cosmos 1953 3.0 23:40:23 10° N 23:44:15 45° ENE 23:44:46 42° E
Cosmos 2278 Rocket 2.4 23:40:33 10° NNW 23:46:13 66° ENE 23:48:51 32° SE
Cosmos 468 4.4 23:42:17 10° NNW 23:47:32 83° ENE 23:49:03 48° SSE
Cosmos 1674 2.8 23:50:45 64° WNW 23:50:45 64° WNW 23:54:27 10° N
Sich 1 Rocket 4.0 23:49:23 10° NNW 23:53:37 47° W 23:54:00 46° WSW
ADEOS Rocket 3.2 23:52:27 40° SW 23:53:57 50° W 23:59:46 10° NNW
